Weather History for Aurora, NE

Change the Weather History Date:

Monday, December 24, 2012

  Actual Average Record
Temperature  
Mean Temperature 10 °F -  
Max Temperature 16 °F 33 °F 68 °F (1964)
Min Temperature 5 °F 11 °F -20 °F (1983)
Degree Days  
Heating Degree Days 54    
Moisture  
Dew Point 7 °F    
Average Humidity 78    
Maximum Humidity 82    
Minimum Humidity 73    
Precipitation  
Precipitation 0.00 in - - ()
Sea Level Pressure  
Sea Level Pressure 30.09 in    
Wind  
Wind Speed 13 mph (North)    
Max Wind Speed 18 mph    
Max Gust Speed 24 mph    
Visibility 10 miles    
Events Snow    
Averages and records for this station are not official NWS values.
T = Trace of Precipitation, MM = Missing Value Source: NWS Daily Summary

Daily Weather History Graph

Daily Weather History Graph

Search for Another Location

Airport:

Trip Planner

Search our weather history database for the weather conditions in past years. The results will help you decide how hot, cold, wet, or windy it might be!

Date:

Astronomy

Dec. 24, 2012 Rise Set
Actual Time 7:54 AM CST 5:09 PM CST
Civil Twilight 7:23 AM CST 5:40 PM CST
Nautical Twilight 6:49 AM CST 6:14 PM CST
Astronomical Twilight 6:15 AM CST 6:48 PM CST
Moon 2:37 PM CST (12/24) 4:33 AM CST (12/24)
Length of Visible Light 10h 16m
Length of Day
9h 14m
Waxing Gibbous, 88% of the Moon is Illuminated
Dec 24
Waxing Gibbous
Dec 28
Full
Jan 4
Last Quarter
Jan 11
New
Jan 18
First Quarter

Hourly Weather History & Observations

Time (CST) Temp. Windchill Dew Point Humidity Pressure Visibility Wind Dir Wind Speed Gust Speed Precip Events Conditions
12:15 AM 12.6 °F -4.9 °F 6.6 °F 77% 30.03 in 10.0 mi NNW 18.4 mph - N/A   Clear
12:35 AM 11.8 °F -4.8 °F 5.9 °F 77% 30.03 in 10.0 mi NNW 16.1 mph - N/A   Clear
12:55 AM 11.3 °F -6.5 °F 5.4 °F 77% 30.02 in 10.0 mi NNW 18.4 mph 24.2 mph N/A   Clear
1:15 AM 11.1 °F -3.9 °F 5.0 °F 76% 30.01 in 10.0 mi NNW 12.7 mph 20.7 mph N/A   Clear
1:35 AM 10.0 °F -3.7 °F 4.6 °F 79% 30.01 in 10.0 mi NNW 10.4 mph - N/A   Clear
1:55 AM 8.6 °F -4.7 °F 3.9 °F 81% 30.01 in 10.0 mi NNW 9.2 mph - N/A   Clear
2:15 AM 8.8 °F -5.3 °F 3.9 °F 81% 30.01 in 10.0 mi NNW 10.4 mph - N/A   Clear
2:35 AM 8.1 °F -4.3 °F 3.2 °F 81% 30.02 in 10.0 mi NW 8.1 mph - N/A   Clear
2:55 AM 7.7 °F -7.4 °F 3.2 °F 82% 30.03 in 10.0 mi NW 11.5 mph - N/A   Clear
3:15 AM 8.4 °F -6.5 °F 3.6 °F 81% 30.04 in 10.0 mi NNW 11.5 mph - N/A   Clear
3:35 AM 8.2 °F -8.2 °F 3.2 °F 80% 30.00 in 10.0 mi North 13.8 mph - N/A   Clear
3:55 AM 8.1 °F -7.0 °F 3.0 °F 80% 30.02 in 10.0 mi NNW 11.5 mph - N/A   Clear
4:15 AM 7.3 °F -6.2 °F 2.3 °F 80% 30.04 in 10.0 mi NW 9.2 mph - N/A   Clear
4:35 AM 7.2 °F -7.3 °F 2.1 °F 80% 30.05 in 10.0 mi NW 10.4 mph - N/A   Clear
4:55 AM 6.8 °F -6.9 °F 1.9 °F 80% 30.03 in 10.0 mi NNW 9.2 mph - N/A   Clear
5:15 AM 6.8 °F -6.9 °F 1.8 °F 80% 30.03 in 10.0 mi NW 9.2 mph - N/A   Clear
5:35 AM 6.6 °F -8.0 °F 1.4 °F 79% 30.03 in 10.0 mi NW 10.4 mph - N/A   Clear
6:15 AM 7.7 °F -5.8 °F 2.1 °F 78% 30.05 in 10.0 mi NNW 9.2 mph - N/A   Clear
6:35 AM 7.3 °F -2.8 °F 1.6 °F 77% 30.07 in 10.0 mi WNW 5.8 mph - N/A   Clear
6:55 AM 5.9 °F -8.0 °F 0.5 °F 78% 30.08 in 10.0 mi NW 9.2 mph - N/A   Clear
7:15 AM 6.6 °F -8.0 °F 1.4 °F 79% 30.07 in 10.0 mi NNW 10.4 mph - N/A   Clear
7:35 AM 6.6 °F -8.0 °F 1.0 °F 78% 30.08 in 10.0 mi NW 10.4 mph - N/A   Clear
7:55 AM 6.3 °F -7.5 °F 0.7 °F 78% 30.08 in 10.0 mi NNW 9.2 mph - N/A   Clear
8:15 AM 6.4 °F -9.0 °F 0.9 °F 78% 30.08 in 10.0 mi NNW 11.5 mph - N/A   Clear
8:35 AM 6.6 °F -7.1 °F 1.0 °F 78% 30.08 in 10.0 mi North 9.2 mph - N/A   Clear
8:55 AM 7.7 °F -6.6 °F 2.1 °F 78% 30.08 in 10.0 mi North 10.4 mph - N/A   Clear
9:15 AM 8.4 °F -7.3 °F 2.3 °F 76% 30.08 in 10.0 mi North 12.7 mph - N/A   Clear
9:35 AM 9.1 °F -6.4 °F 3.0 °F 76% 30.10 in 10.0 mi North 12.7 mph - N/A   Clear
9:55 AM 9.3 °F -6.1 °F 3.2 °F 76% 30.11 in 10.0 mi North 12.7 mph - N/A   Clear
10:35 AM 10.6 °F -5.8 °F 3.9 °F 75% 30.12 in 10.0 mi North 15.0 mph - N/A   Clear
10:55 AM 11.1 °F -5.1 °F 4.8 °F 76% 30.12 in 10.0 mi North 15.0 mph - N/A   Clear
11:15 AM 11.8 °F -5.3 °F 5.4 °F 75% 30.11 in 10.0 mi North 17.3 mph - N/A   Clear
11:35 AM 12.6 °F -3.3 °F 5.9 °F 75% 30.11 in 10.0 mi North 15.0 mph - N/A   Clear
11:55 AM 12.9 °F -3.9 °F 6.4 °F 75% 30.10 in 7.0 mi NNE 17.3 mph - N/A   Clear
12:15 PM 13.6 °F -2.4 °F 7.5 °F 77% 30.09 in 10.0 mi North 16.1 mph - N/A   Clear
12:35 PM 13.5 °F -1.5 °F 7.5 °F 77% 30.09 in 10.0 mi NNE 13.8 mph - N/A   Clear
12:55 PM 13.1 °F 0.1 °F 7.3 °F 78% 30.10 in 10.0 mi North 10.4 mph - N/A   Clear
1:15 PM 14.0 °F 3.9 °F 7.9 °F 77% 30.10 in 10.0 mi NNE 6.9 mph - N/A   Clear
1:35 PM 14.7 °F 2.1 °F 8.4 °F 76% 30.10 in 10.0 mi NNE 10.4 mph - N/A   Clear
1:55 PM 14.9 °F 2.3 °F 8.2 °F 75% 30.10 in 10.0 mi NNE 10.4 mph - N/A   Clear
2:15 PM 15.3 °F 3.5 °F 8.1 °F 73% 30.10 in 10.0 mi NNE 9.2 mph - N/A   Clear
2:35 PM 15.6 °F 4.0 °F 8.8 °F 74% 30.09 in 10.0 mi NNE 9.2 mph - N/A   Scattered Clouds
2:55 PM 15.8 °F 6.1 °F 9.1 °F 75% 30.10 in 10.0 mi NNE 6.9 mph - N/A   Mostly Cloudy
3:15 PM 16.3 °F 2.7 °F 9.5 °F 74% 30.09 in 10.0 mi NE 12.7 mph - N/A   Scattered Clouds
3:35 PM 16.3 °F 2.7 °F 9.7 °F 75% 30.08 in 10.0 mi NE 12.7 mph - N/A   Mostly Cloudy
3:55 PM 16.5 °F 1.3 °F 9.9 °F 75% 30.08 in 10.0 mi NE 16.1 mph - N/A   Overcast
4:15 PM 16.3 °F 1.6 °F 9.5 °F 74% 30.07 in 10.0 mi NE 15.0 mph - N/A   Overcast
4:35 PM 16.2 °F 0.3 °F 9.9 °F 76% 30.06 in 10.0 mi NE 17.3 mph 20.7 mph N/A   Overcast
4:55 PM 16.0 °F 1.1 °F 10.0 °F 77% 30.07 in 10.0 mi NE 15.0 mph 21.9 mph N/A   Overcast
5:15 PM 16.2 °F 1.9 °F 10.4 °F 78% 30.09 in 10.0 mi NNE 13.8 mph - N/A   Overcast
5:35 PM 15.8 °F 2.1 °F 10.0 °F 78% 30.10 in 10.0 mi NE 12.7 mph - N/A   Overcast
5:55 PM 15.8 °F 4.2 °F 10.4 °F 79% 30.10 in 10.0 mi NE 9.2 mph - N/A   Overcast
6:15 PM 15.6 °F 4.0 °F 9.5 °F 77% 30.11 in 10.0 mi NE 9.2 mph - N/A   Overcast
6:35 PM 15.8 °F 3.4 °F 10.2 °F 79% 30.11 in 10.0 mi NNE 10.4 mph - N/A   Overcast
6:55 PM 15.8 °F 4.2 °F 10.4 °F 79% 30.11 in 10.0 mi NNE 9.2 mph - N/A   Overcast
7:15 PM 15.8 °F 2.1 °F 10.4 °F 79% 30.12 in 10.0 mi NNE 12.7 mph - N/A   Overcast
7:35 PM 16.0 °F 3.6 °F 10.4 °F 79% 30.12 in 10.0 mi NNE 10.4 mph - N/A   Overcast
7:55 PM 16.2 °F 3.9 °F 10.6 °F 79% 30.13 in 10.0 mi NNE 10.4 mph - N/A   Overcast
8:15 PM 16.2 °F 3.2 °F 10.8 °F 79% 30.13 in 10.0 mi NNE 11.5 mph - N/A   Overcast
8:35 PM 16.2 °F 2.5 °F 10.6 °F 79% 30.14 in 10.0 mi NNE 12.7 mph - N/A   Overcast
8:55 PM 16.2 °F 0.8 °F 10.4 °F 78% 30.13 in 10.0 mi NNE 16.1 mph - N/A   Overcast
9:15 PM 16.0 °F 1.7 °F 10.4 °F 79% 30.13 in 10.0 mi NNE 13.8 mph - N/A   Overcast
9:35 PM 15.8 °F 0.3 °F 10.4 °F 79% 30.15 in 10.0 mi NNE 16.1 mph - N/A   Overcast
9:55 PM 15.8 °F 2.7 °F 10.4 °F 79% 30.16 in 10.0 mi NNE 11.5 mph 18.4 mph N/A   Overcast
10:15 PM 15.6 °F 2.5 °F 10.4 °F 80% 30.17 in 10.0 mi NNE 11.5 mph - N/A Snow Light Snow
10:35 PM 15.6 °F 2.5 °F 10.6 °F 80% 30.18 in 10.0 mi NNE 11.5 mph - N/A   Overcast
10:55 PM 15.4 °F 2.3 °F 10.4 °F 80% 30.18 in 10.0 mi NNE 11.5 mph - N/A   Overcast
11:15 PM 15.3 °F 2.0 °F 10.2 °F 80% 30.19 in 10.0 mi NNE 11.5 mph - N/A   Overcast
11:35 PM 14.9 °F 1.6 °F 10.2 °F 82% 30.20 in 10.0 mi NNE 11.5 mph - N/A   Overcast
11:55 PM 14.7 °F -2.0 °F 10.2 °F 82% 30.19 in 10.0 mi NNE 18.4 mph - N/A   Overcast